Regional Weather Roundup
Issued by NWS

Home | Current Version | Previous Version | Text Only | Print | Product List | Glossary On
Versions: 1 2 3 4 5 6 7 8 9 10 11 12 13 14 15 16 17 18 19 20 21 22 23 24 25 26 27
000
ASUS42 KKEY 220310
RWRKEY

FLORIDA REGIONAL WEATHER ROUNDUP FOR THE FLORIDA KEYS
NATIONAL WEATHER SERVICE KEY WEST FLORIDA
1100 PM EDT SAT OCT 21 2017

...SOUTH FLORIDA AND THE KEYS...

CITY           SKY/WX    TMP DP  RH WIND       PRES   REMARKS
FORT MYERS     CLOUDY    74  71  91 E8        30.10R
SW REGIONAL AP CLOUDY    77  75  93 NE8       30.10R
NAPLES         CLOUDY    78  74  87 E10       30.08S
MIAMI          CLOUDY    83  75  77 E15       30.09R HX  90
WEST KENDALL   CLOUDY    80  75  84 E12       30.08S
HOMESTEAD      MOCLDY    82  78  89 E10       30.07S HX  91
MARATHON       CLOUDY    82  73  74 E14G22    30.05S
KEY WEST INTL  CLOUDY    80  75  84 E10G20    30.05S

...INTERNATIONAL WEATHER...

CITY           SKY/WX    TMP DP  RH WIND       PRES   REMARKS
NASSAU BAHAMAS MOCLDY    82  75  78 E7        30.11R
CANCUN MEXICO  PTCLDY    81  79  94 E8        29.94R
COZUMEL MEXICO CLOUDY    77  77 100 CALM      29.92R

ADJACENT COASTAL WATERS...

STATION/POSITION TIME  SKY/WX   TEMP    WIND        PRES    WAVE
                                AIR SEA DIR/SP/G            HT/PER
                 (UTC)          (F)     (DEG/KT/KT) (MB)    (FT/S)
PULASKI SHOAL LI 0300            81     100/ 19/ 20 1017.1R
SAND KEY         0250            82                 1017.7F
LONG KEY         NOT AVBL
MOLASSES REEF    0300            82 83  120/ 15/ 16 1018.4R
FOWEY ROCKS      0300            82 83   80/ 20/ 21 1019.2R
Buoy 42097       0230               83                N/A     6/ 6

$$




USA.gov is the U.S. government's official web portal to all federal, state and local government web resources and services.